TimePST,TemperatureF,Dew PointF,Humidity,Sea Level PressureIn,VisibilityMPH,Wind Direction,Wind SpeedMPH,Gust SpeedMPH,PrecipitationIn,Events,Conditions,WindDirDegrees,DateUTC
12:53 AM,44.1,37.9,79,29.48,10.0,East,18.4,29.9,0.00,Rain,Light Rain,80,2012-11-30 08:53:00
1:53 AM,44.1,37.9,79,29.46,10.0,East,24.2,32.2,0.00,,Overcast,80,2012-11-30 09:53:00
2:53 AM,45.0,37.9,76,29.45,10.0,East,23.0,31.1,N/A,,Overcast,90,2012-11-30 10:53:00
3:53 AM,44.1,37.9,79,29.44,10.0,East,24.2,33.4,N/A,,Overcast,90,2012-11-30 11:53:00
4:53 AM,44.1,39.0,82,29.46,9.0,East,19.6,25.3,0.00,Rain,Light Rain,90,2012-11-30 12:53:00
5:53 AM,44.1,39.0,82,29.47,10.0,East,16.1,24.2,0.00,,Overcast,90,2012-11-30 13:53:00
6:53 AM,44.1,39.9,85,29.49,10.0,ENE,6.9,-,0.00,,Overcast,70,2012-11-30 14:53:00
7:53 AM,45.0,41.0,86,29.51,10.0,ENE,5.8,-,0.00,Rain,Light Rain,60,2012-11-30 15:53:00
8:53 AM,45.0,39.9,82,29.52,10.0,East,9.2,-,0.00,,Clear,80,2012-11-30 16:53:00
9:53 AM,48.0,42.1,80,29.52,10.0,East,10.4,18.4,N/A,,Mostly Cloudy,80,2012-11-30 17:53:00
10:53 AM,51.1,43.0,74,29.53,10.0,Variable,4.6,-,N/A,,Overcast,0,2012-11-30 18:53:00
11:53 AM,61.0,46.0,58,29.52,10.0,SSW,10.4,23.0,N/A,,Mostly Cloudy,200,2012-11-30 19:53:00
12:53 PM,61.0,44.1,54,29.51,10.0,SW,13.8,27.6,N/A,,Mostly Cloudy,220,2012-11-30 20:53:00
1:53 PM,61.0,45.0,56,29.51,10.0,SSW,12.7,16.1,N/A,,Overcast,200,2012-11-30 21:53:00
2:53 PM,57.0,45.0,64,29.51,10.0,East,10.4,-,N/A,,Overcast,100,2012-11-30 22:53:00
5:53 PM,48.9,45.0,86,29.51,6.0,NNE,3.5,-,0.00,Rain,Rain,20,2012-12-01 01:53:00
6:53 PM,48.9,45.0,86,29.49,10.0,East,15.0,19.6,0.00,Rain,Light Rain,90,2012-12-01 02:53:00
7:53 PM,48.9,45.0,86,29.49,10.0,East,8.1,-,0.00,,Overcast,90,2012-12-01 03:53:00
8:53 PM,48.9,45.0,86,29.46,10.0,East,13.8,19.6,N/A,,Overcast,80,2012-12-01 04:53:00
9:53 PM,50.0,45.0,83,29.46,10.0,East,15.0,21.9,0.00,Rain,Light Rain,90,2012-12-01 05:53:00
10:30 PM,51.8,46.4,82,29.53,2.0,West,5.8,-,N/A,Rain,Heavy Rain,270,2012-12-01 06:30:00
10:44 PM,51.8,46.4,82,29.53,5.0,SW,12.7,21.9,N/A,Rain,Rain,220,2012-12-01 06:44:00
10:53 PM,52.0,46.0,80,29.52,7.0,SSW,9.2,19.6,N/A,Rain,Rain,210,2012-12-01 06:53:00
11:53 PM,48.9,46.0,90,29.49,8.0,East,9.2,-,N/A,Rain,Light Rain,80,2012-12-01 07:53:00